Regional Weather Roundup
Issued by NWS

Home | Current Version | Previous Version | Text Only | Print | Product List | Glossary On
Versions: 1 2 3 4 5 6 7 8 9 10 11 12 13 14 15 16 17 18 19 20 21 22 23 24 25 26 27 28 29 30 31 32 33 34 35 36 37 38 39 40 41 42 43 44 45 46 47 48 49 50
000
ASUS45 KBOI 192310
RWRID

IDAHO REGIONAL WEATHER ROUNDUP
NATIONAL WEATHER SERVICE BOISE ID
500 PM MDT MON AUG 19 2019

NOTE: "FAIR" INDICATES FEW OR NO CLOUDS BELOW 12000 FEET
WITH NO SIGNIFICANT WEATHER AND/OR OBSTRUCTIONS TO VISIBILITY

IDZ012-014-200000-
SOUTHWEST IDAHO


CITY           SKY/WX    TMP DP  RH WIND       PRES   REMARKS
BOISE          SUNNY     94  41  16 NW10      29.89F HX  90
CALDWELL       SUNNY     95  48  20 NW8       29.86F HX  91
MOUNTAIN HOME  SUNNY     95  37  13 N9G17     29.88F HX  91
$$

IDZ016-017-200000-
SOUTHCENTRAL IDAHO


CITY           SKY/WX    TMP DP  RH WIND       PRES   REMARKS
BURLEY         SUNNY     91  33  12 W8        29.95F
JEROME         SUNNY     91  47  21 NW7       29.96F
TWIN FALLS     SUNNY     91  44  19 N7        29.97F
$$

IDZ019>023-200000-
SOUTHEAST IDAHO


CITY           SKY/WX    TMP DP  RH WIND       PRES   REMARKS
IDAHO FALLS    SUNNY     92  29  10 SW17G23   30.00F
POCATELLO      SUNNY     96  25   8 W13G22    29.98S HX  90
REXBURG        SUNNY     92  30  11 SW13G23   30.00F
$$

IDZ006-010-011-018-031-032-200000-
CENTRAL IDAHO MOUNTAINS


CITY           SKY/WX    TMP DP  RH WIND       PRES   REMARKS
MCCALL         SUNNY     85  34  16 SW12G18   30.03S
STANLEY          N/A     84  31  14 W14G21    30.13S
SALMON         MOSUNNY   93  37  14 W17G24    29.87F
CHALLIS        SUNNY     92  31  11 W14G20    29.97S
$$

IDZ002-004-006-007-026-200000-
NORTHERN IDAHO


CITY           SKY/WX    TMP DP  RH WIND       PRES   REMARKS
LEWISTON       SUNNY     92  42  17 NW9       29.87S
LOWELL           N/A     93  50  23 CALM      29.83S HX  90
COEUR D`ALENE  SUNNY     84  46  26 W8        29.93S
MULLAN PASS    SUNNY     69  38  32 VRB3      30.13R
$$



USA.gov is the U.S. government's official web portal to all federal, state and local government web resources and services.